Location: Black Forest
(43.4794°N, 75.0081°W)
Time: 15:01:57
(UTC-04:00)

ISS - All Passes

Search period start: 26 September 2016 00:00
Search period end: 06 October 2016 00:00
Orbit: 400 x 410 km, 51.6° (Epoch: 27 September)

Date Brightness Start Highest point End Pass type
(mag) Time Alt. Az. Time Alt. Az. Time Alt. Az.
26 Sep - 00:56:49 10° NW 00:59:17 19° N 01:01:45 10° NE night (unlit)
26 Sep - 02:33:26 10° NW 02:36:28 33° NNE 02:39:30 10° E night (unlit)
26 Sep - 04:09:52 10° WNW 04:13:02 43° SW 04:16:11 10° SE night (unlit)
26 Sep - 20:50:39 10° SSW 20:53:29 28° SE 20:56:22 10° ENE visible
26 Sep - 22:26:45 10° W 22:29:53 42° NNW 22:33:02 10° NE night (unlit)
27 Sep - 00:04:28 10° NW 00:06:58 20° N 00:09:29 10° NE night (unlit)
27 Sep - 01:41:26 10° NW 01:44:14 25° NNE 01:47:02 10° ENE night (unlit)
27 Sep - 03:17:43 10° WNW 03:21:01 81° SSW 03:24:18 10° SE night (unlit)
27 Sep - 04:56:17 10° WSW 04:57:00 11° SW 04:57:43 10° SW night (unlit)
27 Sep - 19:59:32 10° S 20:01:36 16° SE 20:03:40 10° E visible
27 Sep - 21:34:30 10° WSW 21:37:45 69° NNW 21:41:00 10° NE visible
27 Sep - 23:12:01 10° WNW 23:14:40 22° N 23:17:19 10° NE night (unlit)
28 Sep - 00:49:20 10° NW 00:51:56 21° N 00:54:33 10° ENE night (unlit)
28 Sep - 02:25:40 10° NW 02:28:55 59° NNE 02:32:10 10° ESE night (unlit)
28 Sep - 04:02:43 10° W 04:05:09 19° SW 04:07:35 10° S night (unlit)
28 Sep - 20:42:26 10° SW 20:45:40 67° SE 20:48:54 10° ENE visible
28 Sep - 22:19:31 10° WNW 22:22:22 27° NNW 22:25:14 10° NE night (unlit)
28 Sep - 23:57:08 10° NW 23:59:36 19° N 00:02:05 10° NE night (unlit)
29 Sep - 01:33:38 10° NW 01:36:45 38° NNE 01:39:51 10° E night (unlit)
29 Sep - 03:10:11 10° WNW 03:13:13 34° SW 03:16:14 10° SSE night (unlit)
29 Sep - 19:50:38 10° SSW 19:53:39 35° SE 19:56:41 10° ENE visible
29 Sep - 21:27:04 10° W 21:30:07 36° NNW 21:33:12 10° NE visible
29 Sep - 23:04:48 10° NW 23:07:16 19° N 23:09:44 10° NE night (unlit)
30 Sep - 00:41:36 10° NW 00:44:30 27° NNE 00:47:22 10° ENE night (unlit)
30 Sep - 02:17:56 10° WNW 02:21:12 65° SW 02:24:27 10° SE night (unlit)
30 Sep - 18:59:15 10° S 19:01:41 20° SE 19:04:08 10° E daylight
30 Sep - 20:34:43 10° WSW 20:37:55 57° NNW 20:41:10 10° NE visible
30 Sep - 22:12:20 10° WNW 22:14:54 21° N 22:17:30 10° NE visible
30 Sep - 23:49:31 10° NW 23:52:11 22° NNE 23:54:51 10° ENE night (unlit)
01 Oct - 01:25:48 10° NW 01:29:05 71° NNE 01:32:22 10° ESE night (unlit)
01 Oct - 03:03:11 10° W 03:05:13 16° SW 03:07:15 10° S night (unlit)
01 Oct - 18:08:59 10° SE 18:09:48 11° SE 18:10:37 10° ESE daylight
01 Oct - 19:42:32 10° SW 19:45:47 84° SSE 19:49:03 10° ENE visible
01 Oct - 21:19:48 10° WNW 21:22:34 25° NNW 21:25:21 10° NE visible
01 Oct - 22:57:20 10° NW 22:59:49 20° N 23:02:20 10° NE night (unlit)
02 Oct - 00:33:44 10° NW 00:36:54 43° NNE 00:40:04 10° E night (unlit)
02 Oct - 02:10:25 10° WNW 02:13:17 28° SW 02:16:08 10° SSE night (unlit)
02 Oct - 18:50:35 10° SW 18:53:42 45° SE 18:56:50 10° ENE daylight
02 Oct - 20:27:17 10° W 20:30:16 32° NNW 20:33:16 10° NE visible
02 Oct - 22:05:00 10° NW 22:07:26 19° N 22:09:53 10° NE visible
02 Oct - 23:41:41 10° NW 23:44:38 30° NNE 23:47:36 10° E night (unlit)
03 Oct - 01:18:03 10° WNW 01:21:15 51° SW 01:24:26 10° SE night (unlit)
03 Oct - 17:58:59 10° SSW 18:01:41 24° SE 18:04:24 10° E daylight
03 Oct - 19:34:50 10° WSW 19:38:00 47° NNW 19:41:11 10° NE visible
03 Oct - 21:12:32 10° WNW 21:15:03 20° N 21:17:34 10° NE visible
03 Oct - 22:49:34 10° NW 22:52:18 24° NNE 22:55:02 10° ENE night (unlit)
04 Oct - 00:25:51 10° WNW 00:29:08 87° NE 00:32:25 10° ESE night (unlit)
04 Oct - 02:03:44 10° WSW 02:05:10 12° SW 02:06:37 10° SSW night (unlit)
04 Oct - 17:08:01 10° SSE 17:09:43 14° SE 17:11:25 10° E daylight
04 Oct - 18:42:33 10° WSW 18:45:47 80° NNW 18:49:03 10° NE daylight
04 Oct - 20:19:58 10° WNW 20:22:40 23° NNW 20:25:21 10° NE visible
04 Oct - 21:57:23 10° NW 21:59:55 20° N 22:02:28 10° ENE visible
04 Oct - 23:33:43 10° NW 23:36:56 51° NNE 23:40:08 10° ESE night (unlit)
05 Oct - 01:10:36 10° W 01:13:13 22° SW 01:15:50 10° S night (unlit)
05 Oct - 17:50:28 10° SW 17:53:38 57° SE 17:56:51 10° ENE daylight
05 Oct - 19:27:23 10° W 19:30:17 29° NNW 19:33:13 10° NE visible
05 Oct - 21:05:04 10° NW 21:07:30 19° N 21:09:57 10° NE visible
05 Oct - 22:41:37 10° NW 22:44:39 34° NNE 22:47:41 10° E night (unlit)
